Regional Weather Roundup
Issued by NWS

Home | Current Version | Previous Version | Graphics & Text | Print | Product List | Glossary On
Versions: 1 2 3 4 5 6 7 8 9 10 11 12 13 14 15 16 17 18 19 20 21 22 23 24 25 26 27 28 29 30 31 32 33 34 35 36 37 38 39 40 41 42 43 44 45 46 47 48 49 50
000
ASUS43 KLSX 280659
RWRMO

WEATHER SUMMARY FOR MISSOURI
NATIONAL WEATHER SERVICE SPRINGFIELD MO
200 AM CDT WED JUN 28 2017

NOTE: "FAIR" INDICATES FEW OR NO CLOUDS BELOW 12,000 FEET WITH NO
       SIGNIFICANT WEATHER AND/OR OBSTRUCTIONS TO VISIBILITY.
       CURRENT SKY AND/OR WEATHER CONDITIONS ARE NOT AVAILABLE FOR
       CHILLICOTHE AND FARMINGTON.

MOZ001>031-035>038-043-044-053-054-280800-
...NORTHERN AND WESTERN MISSOURI...

CITY           SKY/WX    TMP DP  RH WIND       PRES   REMARKS
KANSAS CTY INT MOCLDY    73  64  73 S18G26    29.86F
KANSAS C DTWN  CLOUDY    75  65  70 S16G24    29.87S
LEE`S SUMMIT   CLEAR     73  65  75 S16       29.90R
ST JOSEPH      MOCLDY    74  66  76 S13       29.83F
CHILLICOTHE      N/A     73  65  75 S8        29.89S
KIRKSVILLE     CLOUDY    68  61  78 S10       29.92F

$$
MOZ066>068-077>081-088>096-101>105-280800-
...SOUTHWEST MISSOURI...

CITY           SKY/WX    TMP DP  RH WIND       PRES   REMARKS
SPRINGFIELD    CLEAR     69  64  84 S15       29.98F
JOPLIN         CLEAR     73  64  73 S13       29.94F
BRANSON        CLEAR     64  63  94 SE7       30.03F

$$
MOZ032>034-039>042-045>050-055>058-069>072-280800-
...CENTRAL MISSOURI...

CITY           SKY/WX    TMP DP  RH WIND       PRES   REMARKS
COLUMBIA       CLEAR     69  64  84 S12       29.96F
JEFFERSON CITY CLEAR     71  63  75 SE10      29.95F
ROLLA          CLEAR     66  63  90 S12       30.00F
SEDALIA        CLOUDY    72  66  81 S13       29.94F
WARRENSBURG    CLEAR     72  63  73 S10G16    29.92R
OSAGE BEACH    CLEAR     68  63  84 S9        29.97F

$$
MOZ051-052-059>065-280800-
...EAST CENTRAL MISSOURI...

CITY           SKY/WX    TMP DP  RH WIND       PRES   REMARKS
ST LOUIS INTL  CLEAR     71  55  56 S8        30.04S
SPIRIT OF STL  CLEAR     68  59  73 SE5       30.02S
ST CHARLES     CLEAR     66  56  70 S6        30.02S

$$
MOZ072>076-082>087-097>100-106>115-280800-
...SOUTH CENTRAL AND SOUTHEAST MISSOURI...

CITY           SKY/WX    TMP DP  RH WIND       PRES   REMARKS
CAPE GIRARDEAU CLEAR     63  58  83 CALM      30.05F
FARMINGTON     CLEAR     59  56  89 CALM      30.07F
POPLAR BLUFF   CLEAR     64  64 100 CALM      30.04F
WEST PLAINS    CLEAR     65  62  90 S3        30.07S

$$




USA.gov is the U.S. government's official web portal to all federal, state and local government web resources and services.